Flag for Belgium Weather past 2 weeks in Eupen, Belgium

Now
37 °F

Low clouds.


Feels Like: 33 °F
Forecast: 35 / 39 °F
Wind: 6 mph from West

Location: Spa / La Sauveniere

Current Time: Dec 25, 2014 at 4:46:16 PM

Latest Report: Dec 25, 2014 at 4:00 PM


Visibility: 9 mi

Pressure: 30.32 "Hg

Humidity: 91%

Dew point: 35 °F

Location of EupenLocation

Historic Weather in Eupen — Graph

°F

Eupen temperature yesterday

Maximum temperature yesterday: 45 °F (at 7:00 PM)
Minimum temperature yesterday: 38 °F (at 11:00 PM)
Average temperature yesterday: 42 °F

Past Weeks' High & Low Weather Summary

 TemperatureHumidityPressure
High50 °F (Dec 18, 4:00 PM)100% (Dec 13, 6:00 PM)30.49 "Hg (Dec 13, 6:00 PM)
Low29 °F (Dec 15, 3:00 AM)81% (Dec 25, 12:00 AM)29.47 "Hg (Dec 12, 4:00 PM)
Average39 °F94%30.04 "Hg
* Reported Dec 10 3:00 PM — Dec 25 3:00 PM, Eupen, Weather by CustomWeather, © 2014

Note: Actual official high and low records may vary slightly from our data, if they occured in-between our weather recording intervals... More about our weather records

Advertising

Eupen weather history for previous 24 hours

 ConditionsComfort  
Time TempWeatherWind HumidityBarometerVisibility
3:00 PM
Dec 25
37 °FFog.5 mph92%30.32 "Hg7 mi
2:00 PM37 °FLow clouds.5 mph92%30.32 "Hg7 mi
1:00 PM36 °FLow clouds.5 mph94%30.32 "Hg6 mi
12:00 PM36 °FLow clouds.5 mph95%30.32 "Hg7 mi
11:00 AM35 °FLow clouds.5 mph94%30.32 "Hg7 mi
10:00 AM34 °FLow clouds.5 mph94%30.31 "Hg8 mi
9:00 AM34 °FLow clouds.5 mph94%30.29 "Hg7 mi
8:00 AM34 °FLow clouds.3 mph94%30.28 "Hg9 mi
7:00 AM33 °FLow clouds.5 mph93%30.27 "Hg9 mi
6:00 AM33 °FPassing clouds.3 mph94%30.26 "Hg11 mi
5:00 AM34 °FClear.3 mph94%30.26 "Hg12 mi
4:00 AM35 °FClear.5 mph89%30.25 "Hg17 mi
3:00 AM35 °FPassing clouds.3 mph87%30.25 "Hg19 mi
2:00 AM36 °FOvercast.5 mph86%30.23 "Hg19 mi
1:00 AM36 °FOvercast.3 mph88%30.23 "Hg19 mi
12:00 AM37 °FOvercast.5 mph81%30.22 "Hg19 mi
11:00 PM
Dec 24
38 °FLow clouds.3 mph94%30.19 "HgN/A
10:00 PM39 °FLow clouds.3 mph96%30.18 "HgN/A
9:00 PM39 °FLow clouds.2 mph97%30.16 "HgN/A
8:00 PM40 °FDrizzle. Low clouds.5 mph98%30.14 "Hg2 mi
7:00 PM45 °FDrizzle. Low clouds.7 mph97%30.06 "Hg4 mi
6:00 PM44 °FLight rain. Low clouds.6 mph96%30.06 "Hg2 mi
5:00 PM44 °FDrizzle. Low clouds.8 mph96%30.05 "Hg2 mi
4:00 PM44 °FLight rain. Low clouds.8 mph95%30.05 "Hg3 mi
Weather by CustomWeather, © 2014

See weather overviewHow to use our weather pages